Location: Dumpton Point
(51.3500°N, 1.4433°E)
Time: 09:40:00
(UTC+00:00)

Cosmos 2151 - Pass Details

Date: 09 April 2020
Orbit: 582 x 600 km, 82.5° (Epoch: 06 June)

Event Time Altitude Azimuth Distance (km) Brightness Sun altitude
Rises 21:00:28 0° 350° (N) 2,820 7.3 -19.7°
Reaches altitude 10° 21:02:41 10° 352° (N) 1,916 6.3 -20.0°
Maximum altitude 21:06:54 75° 78° (ENE) 610 2.8 -20.5°
Enters shadow 21:07:37 59° 143° (SE) 681 2.9 -20.5°
